Regional Weather Roundup
Issued by NWS

Home | Current Version | Previous Version | Graphics & Text | Print | Product List | Glossary Off
Versions: 1 2 3 4 5 6 7 8 9 10 11 12 13 14 15 16 17 18 19 20 21 22 23 24 25 26 27 28 29 30 31 32 33 34 35 36 37 38 39 40 41 42 43 44 45 46 47 48 49 50

000
ASUS43 KTOP 201308
RWRKS

WEATHER ROUNDUP FOR KANSAS
NATIONAL WEATHER SERVICE GOODLAND KS
800 AM CDT FRI APR 20 2018

NOTE:  "FAIR" INDICATES FEW OR NO CLOUDS BELOW 12,000 FEET WITH NO
SIGNIFICANT WEATHER AND/OR OBSTRUCTIONS TO VISIBILITY.

KSZ001>006-013>018-027>032-041>047-201400-
NORTHWEST KANSAS

CITY           SKY/WX    TMP DP  RH WIND       PRES   REMARKS
GOODLAND       CLOUDY    41  28  60 SE24G39   30.11R
HAYS           CLOUDY    43  30  60 SE8       30.27S
HILL CITY      CLOUDY    44  30  57 SE12      30.25S
RUSSELL        CLOUDY    45  32  60 SE17      30.27S
$$

KSZ061>065-074>080-084>089-201400-
SOUTHWEST KANSAS

CITY           SKY/WX    TMP DP  RH WIND       PRES   REMARKS
DODGE CITY     CLOUDY    43  28  55 SE20G30   30.21F
ELKHART        MOCLDY    45  32  60 SE21G26   30.11S
GARDEN CITY    CLOUDY    42  28  57 SE22G31   30.18R
GREAT BEND     CLOUDY    43  31  62 SE15      30.28F
LIBERAL        CLOUDY    45  32  60 SE18      30.18R
PRATT          PTSUNNY   42  29  61 SE7       30.29S
$$

KSZ066>073-081>083-090>101-201400-
SOUTHEAST KANSAS

CITY           SKY/WX    TMP DP  RH WIND       PRES   REMARKS
CHANUTE        SUNNY     44  32  62 SE13      30.41R
COFFEYVILLE    CLOUDY    44  34  67 E7        30.40R
HUTCHINSON     PTSUNNY   42  32  67 E13       30.32F
MEDICINE LODGE   N/A     43  31  62 E8        30.29S
NEWTON         MOSUNNY   40  31  70 E10       30.35R WCI  33
PARSONS        SUNNY     45  33  63 SE8       30.41R
WICHITA INTL   PTSUNNY   44  32  62 SE12      30.33S
WICHITA JABRA  PTSUNNY   40  33  76 E6        30.35R
WICHITA MCCONL PTSUNNY   43  30  59 SE10      30.34R
WINFIELD       MOSUNNY   44  33  65 E7        30.35S
$$

KSZ007>012-019>026-033>040-048>060-102>105-201400-
NORTHEAST KANSAS

CITY           SKY/WX    TMP DP  RH WIND       PRES   REMARKS
CONCORDIA      CLOUDY    40  31  70 E9        30.34F
EMPORIA        CLOUDY    41  32  70 SE9       30.40R
LAWRENCE       SUNNY     41  34  76 E5        30.45R
MANHATTAN      CLOUDY    40  31  70 CALM      30.40R
MARYSVILLE     CLOUDY    41  32  70 SE9       30.39F
OLATHE IND     CLOUDY    42  31  64 SE7       30.45R
OLATHE EXE     CLOUDY    41  30  65 SE7       30.45R
SALINA         CLOUDY    44  32  62 SE10      30.35S
TOPEKA BILLARD CLOUDY    42  34  73 E7        30.43R
TOPEKA FORBES  CLOUDY    43  33  68 SE7       30.42R
$$




USA.gov is the U.S. government's official web portal to all federal, state and local government web resources and services.